Location: New Town
(33.2710°N, 90.7534°W)
Time: 14:13:18
(UTC+00:00)

Tiros 1 - All Passes

Search period start: 08 May 2021 00:00
Search period end: 18 May 2021 00:00
Orbit: 630 x 664 km, 48.4° (Epoch: 07 May)

Date Brightness Start Highest point End Pass type
(mag) Time Alt. Az. Time Alt. Az. Time Alt. Az.
08 May - 07:02:07 10° SSW 07:06:43 48° SE 07:11:19 10° ENE visible
08 May - 08:44:45 10° W 08:49:02 32° NNW 08:53:19 10° NE visible
08 May - 10:30:00 10° NW 10:32:24 14° N 10:34:49 10° NNE visible
08 May - 12:13:34 10° NNW 12:16:14 15° NNE 12:18:52 10° NE daylight
08 May - 13:55:02 10° NW 13:59:26 39° NNE 14:03:48 10° ESE daylight
08 May - 15:37:21 10° WNW 15:41:34 34° SW 15:45:43 10° SSE daylight
09 May - 05:47:41 10° S 05:50:50 18° SE 05:53:59 10° E night (unlit)
09 May - 07:27:50 10° WSW 07:32:38 71° NW 07:37:24 10° NE visible
09 May - 09:12:00 10° WNW 09:15:28 19° NNW 09:18:55 10° NNE visible
09 May - 10:57:09 10° NNW 10:59:10 12° N 11:01:11 10° NNE daylight
09 May - 12:39:13 10° NNW 12:42:49 21° NNE 12:46:23 10° ENE daylight
09 May - 14:20:49 10° NW 14:25:32 86° NE 14:30:09 10° SE daylight
09 May - 16:05:01 10° W 16:07:10 13° SW 16:09:18 10° SSW daylight
10 May - 06:11:57 10° SSW 06:16:30 44° SE 06:21:02 10° ENE visible
10 May - 07:54:23 10° W 07:58:46 34° NNW 08:03:07 10° NE visible
10 May - 09:39:34 10° NW 09:42:06 14° N 09:44:37 10° NNE visible
10 May - 11:23:20 10° NNW 11:25:55 14° N 11:28:29 10° NE daylight
10 May - 13:04:49 10° NW 13:09:12 37° NNE 13:13:30 10° E daylight
10 May - 14:47:03 10° WNW 14:51:21 38° SW 14:55:38 10° SSE daylight
11 May - 04:57:46 10° SSE 05:00:38 16° SE 05:03:30 10° E night (unlit)
11 May - 06:37:35 10° SW 06:42:23 78° NW 06:47:11 10° NE visible
11 May - 08:21:35 10° WNW 08:25:10 20° NNW 08:28:44 10° NNE visible
11 May - 10:06:48 10° NNW 10:08:51 12° N 10:10:53 10° NNE visible
11 May - 11:49:01 10° NNW 11:52:32 20° NNE 11:56:01 10° ENE daylight
11 May - 13:30:36 10° NW 13:35:18 79° NE 13:39:57 10° SE daylight
11 May - 15:14:25 10° W 15:16:59 15° SW 15:19:33 10° SSW daylight
12 May - 05:21:49 10° SSW 05:26:17 39° SE 05:30:45 10° ENE night (unlit)
12 May - 07:04:03 10° W 07:08:30 37° NNW 07:12:56 10° NE visible
12 May - 08:49:07 10° NW 08:51:47 15° NNW 08:54:25 10° NNE visible
12 May - 10:33:06 10° NNW 10:35:36 14° N 10:38:06 10° NE visible
12 May - 12:14:37 10° NW 12:18:55 34° NNE 12:23:11 10° E daylight
12 May - 13:56:45 10° WNW 14:01:10 42° SW 14:05:32 10° SSE daylight
13 May - 04:07:56 10° SSE 04:10:27 14° SE 04:12:57 10° E night (unlit)
13 May - 05:47:19 10° SW 05:52:08 85° NW 05:56:57 10° NE visible
13 May - 07:31:11 10° WNW 07:34:52 22° NNW 07:38:33 10° NNE visible
13 May - 09:16:27 10° NNW 09:18:31 13° N 09:20:36 10° NNE visible
13 May - 10:58:48 10° NNW 11:02:14 19° NNE 11:05:39 10° ENE daylight
13 May - 12:40:21 10° NW 12:45:04 72° NE 12:49:43 10° ESE daylight
13 May - 14:23:53 10° W 14:26:49 16° SW 14:29:42 10° SSW daylight
14 May - 04:31:42 10° SSW 04:36:04 36° SE 04:40:27 10° ENE night (unlit)
14 May - 06:13:43 10° WSW 06:18:13 40° NNW 06:22:44 10° NE visible
14 May - 07:58:42 10° NW 08:01:28 15° NNW 08:04:12 10° NNE visible
14 May - 09:42:50 10° NNW 09:45:17 14° N 09:47:43 10° NE visible
14 May - 11:24:24 10° NW 11:28:40 32° NNE 11:32:53 10° E daylight
14 May - 13:06:27 10° WNW 13:10:57 46° SW 13:15:25 10° SSE daylight
15 May - 03:18:11 10° SSE 03:20:15 13° SE 03:22:20 10° ESE night (unlit)
15 May - 04:57:05 10° SW 05:01:54 88° SE 05:06:43 10° NE visible
15 May - 06:40:47 10° WNW 06:44:34 23° NNW 06:48:22 10° NNE visible
15 May - 08:26:04 10° NNW 08:28:12 13° N 08:30:19 10° NNE visible
15 May - 10:08:35 10° NNW 10:11:56 19° NNE 10:15:16 10° ENE visible
15 May - 11:50:07 10° NW 11:54:50 66° NE 11:59:29 10° ESE daylight
15 May - 13:33:25 10° W 13:36:37 18° SW 13:39:49 10° S daylight
16 May - 03:41:35 10° SSW 03:45:51 32° SE 03:50:08 10° ENE night (unlit)
16 May - 05:23:23 10° WSW 05:27:57 43° NNW 05:32:32 10° NE visible
16 May - 07:08:16 10° NW 07:11:09 16° NNW 07:14:01 10° NNE visible
16 May - 08:52:34 10° NNW 08:54:59 14° N 08:57:21 10° NE visible
16 May - 10:34:12 10° NW 10:38:24 30° NNE 10:42:33 10° E visible
16 May - 12:16:10 10° WNW 12:20:45 52° SW 12:25:17 10° SSE daylight
17 May - 02:28:38 10° SE 02:30:04 11° SE 02:31:30 10° ESE night (unlit)
17 May - 04:06:51 10° SW 04:11:40 80° SE 04:16:28 10° NE night (unlit)
17 May - 05:50:23 10° WNW 05:54:17 24° NNW 05:58:11 10° NNE visible
17 May - 07:35:42 10° NNW 07:37:52 13° N 07:40:03 10° NNE visible
17 May - 09:18:22 10° NNW 09:21:39 18° NNE 09:24:53 10° ENE visible
17 May - 10:59:53 10° NW 11:04:36 61° NE 11:09:14 10° ESE daylight
17 May - 12:42:59 10° W 12:46:27 20° SW 12:49:52 10° S daylight
